Aérodrome :
LOGIN :

S'inscrire | Disclaimer

   EN    FR    IT 

 










Légende :    VFR   VFR Marginal   IFR   IFR Intensif   IFR Très Intensif
Visi : 
Plafond : 
>= 8 km
>= 3000ft
5 à 8 km
1000 à 3000 ft
1500m à 5 km
500 à 1000 ft
800 à 1500m
200 à 500 ft
< 800m
< 200 ft
Symboles :   Orages  Brouillard  Fortes neiges  Fortes précipitations  Vent > 20 kt
SIGMETs :   Divers  Orages  Givrage  Turbulence  Onde Orograph.  Cendres Volcan.







- Altitude de l'aérodrome : 38 ft
- Code IATA : BOH
- Voir les cartes d'approche


EGHH - Bournemouth

DERNIER METAR :
  • 240920Z VRB03KT 9999 FEW013 SCT035 20/14 Q1026

METARs EXPIRÉS :
  • 240850Z VRB02KT 9999 FEW013 19/14 Q1026
  • 240820Z VRB02KT 9999 FEW010 18/14 Q1026
  • 240750Z VRB02KT 9999 FEW008 17/14 Q1026
  • 240720Z 36003KT 9999 FEW004 BKN008 15/13 Q1026
  • 240650Z 34004KT 310V040 9999 BKN004 14/13 Q1026

TAF TAF EGHH
Valide du 24 à 09h jusqu'au 24 à 18h UTC


240757Z 2409/2418 34004KT 9999 BKN008
BECMG 2409/2412 19010KT SCT035
ATIS : +44 1202 364 151
Météo : +44 1202 364 158 (TAF)
Pas de NOTAMs connus pour ce terrain.



MET'MAP, la Météo Aéronautique d'un coup d'oeil ! - Copyright ORBIFLY Décembre 2007 - Disclaimer

ORBIFLY MET'MAP TEAM :

Programmation & Développement : Alexandra Zaïnal
Conception & Développement : Baudouin d'Aumeries
Co-Programmation & Développement : Marc-Olivier Méhu
Soutien technique & logistique : Manuel Goepfert

Contact : metmap@orbifly.com




SOURCES & CREDITS :

   NOAA